This is the latest recevied weather packets stored in our database for station/object IZ0VWB-3. If no packets are shown the sender has not sent any weather packets the latest 1 day(s).
| Time | Temp. | Humidity | Pressure | Rain* | Wind** | Luminosity | Snow |
|---|---|---|---|---|---|---|---|
| 1778034812 | 13.33° C | 84% | 1000.3 hPa | 0 mm | 1.34 m/s, 90° | - | - |
| 1778034213 | 13.89° C | 84% | 1000.4 hPa | 0 mm | 0.89 m/s, 148° | - | - |
| 1778033614 | 13.89° C | 84% | 1000.4 hPa | 0 mm | 0.89 m/s, 152° | - | - |
| 1778033012 | 13.89° C | 84% | 1000.5 hPa | 0 mm | 1.34 m/s, 165° | - | - |
| 1778032415 | 13.89° C | 84% | 1000.6 hPa | 0 mm | 0 m/s | - | - |
| 1778031815 | 13.89° C | 84% | 1000.5 hPa | 0 mm | 0.45 m/s, 172° | - | - |
| 1778031216 | 13.89° C | 84% | 1000.5 hPa | 0 mm | 0 m/s | - | - |
| 1778030615 | 13.89° C | 84% | 1000.4 hPa | 0 mm | 0.45 m/s, 147° | - | - |
| 1778030015 | 13.89° C | 84% | 1000.3 hPa | 0 mm | 0.45 m/s, 161° | - | - |
| 1778029416 | 13.89° C | 84% | 1000.3 hPa | 0 mm | 0.89 m/s, 137° | - | - |
| 1778028815 | 13.89° C | 83% | 1000.4 hPa | 0 mm | 0.45 m/s, 131° | - | - |
| 1778028215 | 13.89° C | 83% | 1000.3 hPa | 0 mm | 0.45 m/s, 159° | - | - |
| 1778027616 | 13.89° C | 83% | 1000.3 hPa | 0 mm | 0.89 m/s, 131° | - | - |
| 1778027016 | 13.89° C | 83% | 1000.3 hPa | 0 mm | 0.89 m/s, 138° | - | - |
| 1778026416 | 13.89° C | 83% | 1000.5 hPa | 0 mm | 0.89 m/s, 139° | - | - |
| 1778025816 | 13.89° C | 83% | 1000.4 hPa | 0 mm | 1.34 m/s, 144° | - | - |
| 1778025215 | 13.89° C | 82% | 1000.5 hPa | 0 mm | 1.34 m/s, 122° | - | - |
| 1778024616 | 14.44° C | 83% | 1000.7 hPa | 0 mm | 0.89 m/s, 138° | - | - |
| 1778024016 | 14.44° C | 83% | 1000.8 hPa | 0 mm | 0.89 m/s, 138° | - | - |
| 1778023415 | 14.44° C | 83% | 1000.9 hPa | 0 mm | 0.89 m/s, 124° | - | - |
| 1778022814 | 14.44° C | 83% | 1001.2 hPa | 0 mm | 0.89 m/s, 138° | - | - |
| 1778022214 | 14.44° C | 83% | 1001.4 hPa | 0 mm | 1.34 m/s, 119° | - | - |
| 1778021615 | 14.44° C | 83% | 1001.4 hPa | 0 mm | 0 m/s | - | - |
| 1778021015 | 14.44° C | 83% | 1001.5 hPa | 0 mm | 0 m/s | - | - |
| 1778020414 | 14.44° C | 83% | 1001.4 hPa | 0 mm | 0 m/s | - | - |
* Rain latest hour (hover to see other rain measurements)
** Current wind speed in m/s (hover to see current wind gust speed)